CW1988 Weather Reports


Display with metric or nautical units.
time (UTC)temp
F
wind
direction
speed
MPH
gust
MPH
rain 1hr
in
rain 24hr
in
rain mn
in
humidity
%
barometer
mb
20260906215257 73 133 0.0 0.0 0.00 0.00 0.00 65 1021.2
20260906214755 73 128 0.0 1.0 0.00 0.00 0.00 65 1021.2
20260906214250 74 144 0.0 0.0 0.00 0.00 0.00 64 1021.3
20260906213744 74 128 1.0 1.0 0.00 0.00 0.00 64 1021.4
20260906213243 74 136 0.0 1.0 0.00 0.00 0.00 66 1021.5
20260906212741 74 144 0.0 0.0 0.00 0.00 0.00 67 1021.5
20260906212237 74 131 0.0 0.0 0.00 0.00 0.00 64 1021.7
20260906211736 74 122 0.0 0.0 0.00 0.00 0.00 64 1021.4
20260906211232 74 139 0.0 0.0 0.00 0.00 0.00 64 1021.5
20260906210727 75 133 0.0 0.0 0.00 0.00 0.00 65 1021.7
20260906210226 75 134 0.0 0.0 0.00 0.00 0.00 65 1021.5
20260906205721 75 119 0.0 1.0 0.00 0.00 0.00 65 1021.6
20260906205218 75 124 0.0 0.0 0.00 0.00 0.00 66 1021.6
20260906204713 75 121 1.0 1.0 0.00 0.00 0.00 65 1021.5
20260906204212 75 119 2.0 2.0 0.00 0.00 0.00 65 1021.5
20260906203712 75 150 0.0 0.0 0.00 0.00 0.00 66 1021.6
20260906203207 75 134 0.0 0.0 0.00 0.00 0.00 68 1021.7
20260906202704 75 139 0.0 0.0 0.00 0.00 0.00 66 1021.6
20260906202203 76 124 0.0 0.0 0.00 0.00 0.00 66 1021.7
20260906201658 76 141 0.0 0.0 0.00 0.00 0.00 64 1021.5
20260906201157 76 129 0.0 1.0 0.00 0.00 0.00 65 1021.7
20260906200654 76 135 0.0 0.0 0.00 0.00 0.00 65 1021.6
20260906200149 76 132 0.0 0.0 0.00 0.00 0.00 66 1021.6
20260906195649 76 140 0.0 0.0 0.00 0.00 0.00 68 1021.5
20260906195146 77 141 0.0 0.0 0.00 0.00 0.00 64 1021.5
20260906194642 77 151 0.0 0.0 0.00 0.00 0.00 67 1021.6
20260906194137 77 150 0.0 0.0 0.00 0.00 0.00 65 1021.6
20260906193632 77 144 0.0 0.0 0.00 0.00 0.00 65 1021.7
20260906193127 77 135 0.0 0.0 0.00 0.00 0.00 67 1021.9
20260906192623 78 139 0.0 0.0 0.00 0.00 0.00 63 1021.6
20260906192121 78 134 0.0 0.0 0.00 0.00 0.00 64 1021.7
20260906191617 79 136 0.0 0.0 0.00 0.00 0.00 65 1021.7
20260906191116 79 137 0.0 0.0 0.00 0.00 0.00 63 1021.6
20260906190610 80 137 0.0 0.0 0.00 0.00 0.00 64 1021.6
20260906190105 80 139 0.0 1.0 0.00 0.00 0.00 64 1021.7
20260906185604 79 127 0.0 1.0 0.00 0.00 0.00 62 1021.8
20260906185103 79 126 0.0 0.0 0.00 0.00 0.00 63 1021.7
20260906184558 78 138 0.0 0.0 0.00 0.00 0.00 61 1021.8
20260906184053 79 143 0.0 0.0 0.00 0.00 0.00 60 1021.6
20260906183549 80 123 0.0 0.0 0.00 0.00 0.00 59 1021.6
20260906183045 81 123 0.0 1.0 0.00 0.00 0.00 59 1021.7
20260906182540 81 122 1.0 1.0 0.00 0.00 0.00 62 1021.9
20260906182036 81 122 0.0 0.0 0.00 0.00 0.00 58 1021.8
20260906181531 81 122 1.0 1.0 0.00 0.00 0.00 59 1021.9
20260906181027 80 137 1.0 1.0 0.00 0.00 0.00 60 1021.9
20260906180522 80 136 0.0 0.0 0.00 0.00 0.00 60 1021.6
20260906180021 80 116 0.0 0.0 0.00 0.00 0.00 62 1022.0
20260906175514 80 122 2.0 2.0 0.00 0.00 0.00 61 1021.9
20260906175009 79 133 0.0 0.0 0.00 0.00 0.00 64 1022.0
20260906174507 79 145 0.0 0.0 0.00 0.00 0.00 61 1021.8
20260906174002 80 145 0.0 0.0 0.00 0.00 0.00 59 1022.1
20260906173457 79 145 0.0 0.0 0.00 0.00 0.00 65 1022.0
20260906172957 80 119 0.0 0.0 0.00 0.00 0.00 62 1022.0
20260906172453 79 119 0.0 0.0 0.00 0.00 0.00 66 1021.9
20260906171948 80 119 0.0 0.0 0.00 0.00 0.00 60 1022.0
20260906171442 80 124 0.0 0.0 0.00 0.00 0.00 59 1022.2
20260906170938 79 125 0.0 0.0 0.00 0.00 0.00 61 1022.0
20260906170434 79 133 1.0 1.0 0.00 0.00 0.00 63 1022.3
20260906165931 79 134 0.0 1.0 0.00 0.00 0.00 62 1022.1
20260906165425 79 123 1.0 2.0 0.00 0.00 0.00 64 1022.3
20260906164920 79 125 0.0 0.0 0.00 0.00 0.00 64 1022.2
20260906164418 79 121 0.0 0.0 0.00 0.00 0.00 66 1022.3
20260906163915 79 128 0.0 0.0 0.00 0.00 0.00 67 1022.2
20260906163411 79 127 0.0 1.0 0.00 0.00 0.00 65 1022.4
20260906162908 78 142 1.0 1.0 0.00 0.00 0.00 68 1022.3
20260906162401 78 124 0.0 0.0 0.00 0.00 0.00 68 1022.3
20260906161857 78 115 0.0 1.0 0.00 0.00 0.00 67 1022.1
20260906161356 78 120 0.0 1.0 0.00 0.00 0.00 68 1022.2
20260906160855 78 124 0.0 0.0 0.00 0.00 0.00 71 1022.2
20260906160349 77 124 0.0 0.0 0.00 0.00 0.00 70 1022.1
20260906155847 77 124 0.0 0.0 0.00 0.00 0.00 68 1022.1
20260906155341 78 137 0.0 0.0 0.00 0.00 0.00 70 1022.1
20260906154838 77 115 0.0 0.0 0.00 0.00 0.00 67 1022.1
20260906154332 77 145 0.0 0.0 0.00 0.00 0.00 68 1021.9
20260906153831 78 114 0.0 1.0 0.00 0.00 0.00 70 1022.2
20260906153330 77 111 2.0 2.0 0.00 0.00 0.00 68 1022.0
20260906152825 77 117 0.0 1.0 0.00 0.00 0.00 69 1022.0
20260906152320 76 122 0.0 0.0 0.00 0.00 0.00 72 1022.0
20260906151820 76 120 0.0 0.0 0.00 0.00 0.00 72 1022.1
20260906151315 75 135 1.0 2.0 0.00 0.00 0.00 74 1022.0
20260906150810 74 137 0.0 0.0 0.00 0.00 0.00 75 1021.9
20260906150306 73 136 0.0 0.0 0.00 0.00 0.00 78 1022.2
20260906145805 73 137 0.0 0.0 0.00 0.00 0.00 78 1022.0
20260906145306 72 55 4.0 4.0 0.00 0.00 0.00 78 1022.2
20260906144759 71 137 0.0 0.0 0.00 0.00 0.00 79 1022.0
20260906144254 72 139 0.0 0.0 0.00 0.00 0.00 80 1022.0
20260906143754 72 126 0.0 0.0 0.00 0.00 0.00 80 1022.0
20260906143251 71 125 0.0 0.0 0.00 0.00 0.00 79 1021.8
20260906142750 71 125 0.0 0.0 0.00 0.00 0.00 80 1021.7
20260906142246 71 123 1.0 1.0 0.00 0.00 0.00 82 1021.8
20260906141744 71 124 0.0 0.0 0.00 0.00 0.00 83 1021.9
20260906141239 71 124 0.0 0.0 0.00 0.00 0.00 81 1021.9
20260906140739 71 127 0.0 0.0 0.00 0.00 0.00 82 1022.0
20260906140234 71 121 0.0 0.0 0.00 0.00 0.00 83 1022.0
20260906135730 70 121 0.0 0.0 0.00 0.00 0.00 83 1022.1
20260906135227 70 122 0.0 0.0 0.00 0.00 0.00 86 1021.8
20260906134721 70 122 0.0 0.0 0.00 0.00 0.00 87 1022.1
20260906134217 70 122 0.0 0.0 0.00 0.00 0.00 86 1021.9
20260906133712 69 122 0.0 0.0 0.00 0.00 0.00 85 1021.9
20260906133207 69 123 0.0 0.0 0.00 0.00 0.00 87 1022.0
20260906132702 69 123 0.0 0.0 0.00 0.00 0.00 86 1021.9
20260906132158 69 122 0.0 0.0 0.00 0.00 0.00 89 1021.8
20260906131653 68 122 0.0 0.0 0.00 0.00 0.00 90 1021.7
20260906131148 68 123 0.0 0.0 0.00 0.00 0.00 90 1021.7
20260906130644 67 123 0.0 0.0 0.00 0.00 0.00 94 1021.6
20260906130139 66 123 0.0 0.0 0.00 0.00 0.00 95 1021.4
20260906125636 66 123 0.0 0.0 0.00 0.00 0.00 96 1021.5
20260906125130 66 123 0.0 0.0 0.00 0.00 0.00 98 1021.4
20260906124626 65 123 0.0 0.0 0.00 0.00 0.00 98 1021.2
20260906124120 65 123 0.0 0.0 0.00 0.00 0.00 98 1021.1
20260906123619 65 123 0.0 0.0 0.00 0.00 0.00 98 1021.2
20260906123115 64 122 0.0 0.0 0.00 0.00 0.00 98 1021.1
20260906122614 64 123 0.0 0.0 0.00 0.00 0.00 98 1021.1
20260906122110 64 123 0.0 0.0 0.00 0.00 0.00 98 1021.1
20260906121606 64 123 0.0 0.0 0.00 0.00 0.00 98 1021.2
20260906121102 63 122 0.0 0.0 0.00 0.00 0.00 98 1021.2
20260906120557 63 122 0.0 0.0 0.00 0.00 0.00 97 1021.1
20260906120055 63 122 0.0 0.0 0.00 0.00 0.00 97 1020.9
20260906115554 63 122 0.0 0.0 0.00 0.00 0.00 97 1020.8
20260906115050 63 122 0.0 0.0 0.00 0.00 0.00 97 1020.6
20260906114544 63 122 0.0 0.0 0.00 0.00 0.00 97 1020.8
20260906114040 64 122 0.0 0.0 0.00 0.00 0.00 97 1020.6
20260906113538 64 122 0.0 0.0 0.00 0.00 0.00 97 1020.7
20260906113034 64 122 0.0 0.0 0.00 0.00 0.00 97 1020.7
20260906112528 64 122 0.0 0.0 0.00 0.00 0.00 97 1020.5
20260906112025 64 122 0.0 0.0 0.00 0.00 0.00 97 1020.5
20260906111518 64 122 0.0 0.0 0.00 0.00 0.00 97 1020.3
20260906111014 64 122 0.0 0.0 0.00 0.00 0.00 97 1020.2
20260906110508 64 122 0.0 0.0 0.00 0.00 0.00 97 1020.4
20260906110007 64 122 0.0 0.0 0.00 0.00 0.00 97 1020.1
20260906105503 64 122 0.0 0.0 0.00 0.00 0.00 97 1020.2
20260906104959 64 122 0.0 0.0 0.00 0.00 0.00 97 1020.3
20260906104457 64 122 0.0 0.0 0.00 0.00 0.00 97 1020.2
20260906103956 64 122 0.0 0.0 0.00 0.00 0.00 97 1020.3
20260906103455 64 122 0.0 0.0 0.00 0.00 0.00 97 1020.3
20260906102950 64 122 0.0 0.0 0.00 0.00 0.00 97 1020.4
20260906102444 64 122 0.0 0.0 0.00 0.00 0.00 97 1020.4
20260906101939 64 122 0.0 0.0 0.00 0.00 0.00 97 1020.3
20260906101435 64 122 0.0 0.0 0.00 0.00 0.00 97 1020.2
20260906100930 64 123 0.0 0.0 0.00 0.00 0.00 97 1020.2
20260906100429 64 123 0.0 0.0 0.00 0.00 0.00 97 1020.2
20260906095924 64 122 0.0 0.0 0.00 0.00 0.00 97 1020.3
20260906095420 64 123 0.0 0.0 0.00 0.00 0.00 96 1020.1
20260906094914 64 123 0.0 0.0 0.00 0.00 0.00 96 1020.0
20260906094409 64 123 0.0 0.0 0.00 0.00 0.00 96 1020.2
20260906093905 64 123 0.0 0.0 0.00 0.00 0.00 96 1020.2
20260906093400 64 123 0.0 0.0 0.00 0.00 0.00 96 1020.1
20260906092855 64 123 0.0 0.0 0.00 0.00 0.00 96 1019.8
20260906092349 64 123 0.0 0.0 0.00 0.00 0.00 96 1020.0
20260906091850 64 122 0.0 0.0 0.00 0.00 0.00 96 1020.0
20260906091346 64 122 0.0 0.0 0.00 0.00 0.00 96 1020.0
20260906090842 64 123 0.0 0.0 0.00 0.00 0.00 96 1019.8
20260906090341 64 123 0.0 0.0 0.00 0.00 0.00 96 1019.7
20260906085836 64 122 0.0 0.0 0.00 0.00 0.00 96 1020.0
20260906085335 64 123 0.0 0.0 0.00 0.00 0.00 97 1020.0
20260906084830 64 123 0.0 0.0 0.00 0.00 0.00 97 1019.8
20260906084330 64 123 0.0 0.0 0.00 0.00 0.00 97 1019.6
20260906083824 64 123 0.0 0.0 0.00 0.00 0.00 97 1019.8
20260906083320 64 123 0.0 0.0 0.00 0.00 0.00 97 1019.7
20260906082815 64 122 0.0 0.0 0.00 0.00 0.00 97 1019.7
20260906082310 64 122 0.0 0.0 0.00 0.00 0.00 97 1019.7
20260906081806 64 122 0.0 0.0 0.00 0.00 0.00 97 1019.8
20260906081302 64 122 0.0 0.0 0.00 0.00 0.00 97 1019.8
20260906080757 64 123 0.0 0.0 0.00 0.00 0.00 97 1019.7
20260906080253 64 123 0.0 0.0 0.00 0.00 0.00 97 1019.8
20260906075747 64 123 0.0 0.0 0.00 0.00 0.00 97 1019.6
20260906075242 64 123 0.0 0.0 0.00 0.00 0.00 97 1019.8
20260906074737 64 123 0.0 0.0 0.00 0.00 0.00 97 1019.8
20260906074237 64 123 0.0 0.0 0.00 0.00 0.00 97 1019.8
20260906073736 64 123 0.0 0.0 0.00 0.00 0.00 97 1019.6
20260906073231 64 123 0.0 0.0 0.00 0.00 0.00 97 1019.6
20260906072727 64 123 0.0 0.0 0.00 0.00 0.00 97 1019.6
20260906072223 64 123 0.0 0.0 0.00 0.00 0.00 97 1019.4
20260906071718 64 123 0.0 0.0 0.00 0.00 0.00 97 1019.5
20260906071218 64 123 0.0 0.0 0.00 0.00 0.00 97 1019.4
20260906070715 64 123 0.0 0.0 0.00 0.00 0.00 97 1019.4
20260906070210 64 123 0.0 0.0 0.00 0.00 0.00 97 1019.7
20260906065709 64 123 0.0 0.0 0.00 0.00 0.00 97 1019.5
20260906065205 64 123 0.0 0.0 0.00 0.00 0.00 97 1019.5
20260906064700 64 123 0.0 0.0 0.00 0.00 0.00 97 1019.6
20260906064155 64 123 0.0 0.0 0.00 0.00 0.00 97 1019.7
20260906063650 64 123 0.0 0.0 0.00 0.00 0.00 97 1019.8
20260906063146 64 123 0.0 0.0 0.00 0.00 0.00 97 1019.7
20260906062642 64 123 0.0 0.0 0.00 0.00 0.00 97 1019.6
20260906062140 64 123 0.0 0.0 0.00 0.00 0.00 97 1019.7
20260906061637 64 123 0.0 0.0 0.00 0.00 0.00 97 1019.5
20260906061137 63 123 0.0 0.0 0.00 0.00 0.00 97 1019.6
20260906060634 63 123 0.0 0.0 0.00 0.00 0.00 97 1019.7
20260906060130 63 123 0.0 0.0 0.00 0.00 0.00 97 1019.6
20260906055626 63 123 0.0 0.0 0.00 0.00 0.00 96 1019.6
20260906055120 63 122 0.0 0.0 0.00 0.00 0.00 96 1019.4
20260906054616 63 122 0.0 0.0 0.00 0.00 0.00 96 1019.5
20260906054111 63 123 0.0 0.0 0.00 0.00 0.00 96 1019.5
20260906053607 63 122 0.0 0.0 0.00 0.00 0.00 96 1019.7
20260906053057 63 122 0.0 0.0 0.00 0.00 0.00 96 1019.7
20260906052552 63 122 0.0 0.0 0.00 0.00 0.00 95 1019.6
20260906052050 63 122 0.0 0.0 0.00 0.00 0.00 95 1019.6
20260906051545 64 123 0.0 0.0 0.00 0.00 0.00 95 1019.6
20260906051040 64 123 0.0 0.0 0.00 0.00 0.00 95 1019.4
20260906050535 64 123 0.0 0.0 0.00 0.00 0.00 95 1019.3
20260906050031 64 123 0.0 0.0 0.00 0.00 0.00 95 1019.4
20260906045529 64 123 0.0 0.0 0.00 0.00 0.00 95 1019.3
20260906045025 64 123 0.0 0.0 0.00 0.00 0.00 95 1019.3
20260906044520 64 123 0.0 0.0 0.00 0.00 0.00 94 1019.4
20260906044016 64 123 0.0 0.0 0.00 0.00 0.00 94 1019.3
20260906043511 65 123 0.0 0.0 0.00 0.00 0.00 93 1019.4
20260906043007 65 122 0.0 0.0 0.00 0.00 0.00 93 1019.3
20260906042506 65 122 0.0 0.0 0.00 0.00 0.00 93 1019.1
20260906042005 65 122 0.0 0.0 0.00 0.00 0.00 93 1019.0
20260906041502 66 122 0.0 0.0 0.00 0.00 0.00 93 1019.0
20260906041002 66 122 0.0 0.0 0.00 0.00 0.00 93 1018.9
20260906040456 66 122 0.0 0.0 0.00 0.00 0.00 92 1018.9
20260906035951 66 122 0.0 0.0 0.00 0.00 0.00 92 1019.1
20260906035447 66 122 0.0 0.0 0.00 0.00 0.00 92 1019.2
20260906034942 66 122 0.0 0.0 0.00 0.00 0.00 91 1019.0
20260906034436 66 122 0.0 0.0 0.00 0.00 0.00 91 1019.0
20260906033933 66 122 0.0 0.0 0.00 0.00 0.00 91 1018.9
20260906033432 66 122 0.0 0.0 0.00 0.00 0.00 91 1019.0
20260906032928 66 122 0.0 0.0 0.00 0.00 0.00 91 1019.0
20260906032425 66 122 0.0 0.0 0.00 0.00 0.00 90 1018.9
20260906031924 66 122 0.0 0.0 0.00 0.00 0.00 90 1018.8
20260906031420 66 123 0.0 0.0 0.00 0.00 0.00 89 1018.8
20260906030915 66 130 0.0 0.0 0.00 0.00 0.00 88 1019.1
20260906030410 67 132 0.0 1.0 0.00 0.00 0.00 88 1018.9
20260906025904 67 147 0.0 0.0 0.00 0.00 0.00 87 1019.1
20260906025359 67 129 0.0 0.0 0.00 0.00 0.00 86 1019.1
20260906024858 67 129 0.0 0.0 0.00 0.00 0.00 87 1019.0
20260906024357 67 125 0.0 0.0 0.00 0.00 0.00 86 1018.9
20260906023852 67 128 0.0 1.0 0.00 0.00 0.00 87 1018.7
20260906023348 67 139 0.0 1.0 0.00 0.00 0.00 87 1018.7
20260906022843 67 109 0.0 2.0 0.00 0.00 0.00 88 1018.7
20260906022337 68 125 0.0 0.0 0.00 0.00 0.00 89 1018.7
20260906021833 68 131 0.0 0.0 0.00 0.00 0.00 89 1018.6
20260906021332 68 124 0.0 0.0 0.00 0.00 0.00 90 1018.8
20260906020827 68 123 0.0 0.0 0.00 0.00 0.00 91 1018.5
20260906020326 68 124 0.0 0.0 0.00 0.00 0.00 92 1018.6
20260906015821 68 124 0.0 0.0 0.00 0.00 0.00 92 1018.8
20260906015321 68 124 0.0 0.0 0.00 0.00 0.00 92 1018.6
20260906014820 69 124 0.0 0.0 0.00 0.00 0.00 93 1018.6
20260906014316 69 124 0.0 0.0 0.00 0.00 0.00 92 1018.5
20260906013812 69 129 0.0 0.0 0.00 0.00 0.00 92 1018.5
20260906013307 69 129 0.0 0.0 0.00 0.00 0.00 91 1018.8
20260906012803 70 128 0.0 0.0 0.00 0.00 0.00 90 1018.7
20260906012258 70 128 0.0 0.0 0.00 0.00 0.00 89 1018.5
20260906011753 70 127 0.0 0.0 0.00 0.00 0.00 88 1018.6
20260906011252 70 136 0.0 0.0 0.00 0.00 0.00 88 1018.5
20260906010748 70 138 0.0 0.0 0.00 0.00 0.00 88 1018.5
20260906010244 70 138 0.0 0.0 0.00 0.00 0.00 89 1018.7
20260906005739 70 138 0.0 0.0 0.00 0.00 0.00 90 1018.7
20260906005238 70 139 0.0 0.0 0.00 0.00 0.00 91 1018.6
20260906004737 70 136 0.0 0.0 0.00 0.00 0.00 91 1018.5
20260906004232 70 130 0.0 0.0 0.00 0.00 0.00 92 1018.7
20260906003727 70 130 0.0 0.0 0.00 0.00 0.00 93 1018.6
20260906003223 70 130 0.0 0.0 0.00 0.00 0.00 93 1018.5
20260906002723 70 130 0.0 0.0 0.00 0.00 0.00 93 1018.4
20260906002218 70 130 0.0 0.0 0.00 0.00 0.00 93 1018.6
20260906001713 70 130 0.0 0.0 0.00 0.00 0.00 93 1018.3
20260906001213 70 130 0.0 1.0 0.00 0.00 0.00 92 1018.5
20260906000708 70 130 0.0 0.0 0.00 0.00 0.00 92 1018.6
20260906000204 70 129 0.0 0.0 0.00 0.00 0.00 92 1018.5
20260905235702 70 130 0.0 0.0 0.00 0.00 0.00 91 1018.4
20260905235157 70 131 0.0 0.0 0.00 0.00 0.00 91 1018.3
20260905234653 70 128 0.0 0.0 0.00 0.00 0.00 91 1018.4
20260905234148 70 124 0.0 0.0 0.00 0.00 0.00 91 1018.7
20260905233643 71 133 0.0 0.0 0.00 0.00 0.00 91 1018.5
20260905233142 71 133 0.0 0.0 0.00 0.00 0.00 90 1018.6
20260905232638 71 134 0.0 1.0 0.00 0.00 0.00 90 1018.5
20260905232134 71 129 0.0 0.0 0.00 0.00 0.00 90 1018.5
20260905231629 71 143 1.0 1.0 0.00 0.00 0.00 90 1018.5
20260905231126 72 129 0.0 0.0 0.00 0.00 0.00 90 1018.5
20260905230621 72 145 0.0 0.0 0.00 0.00 0.00 89 1018.5
20260905230119 72 145 0.0 0.0 0.00 0.00 0.00 89 1018.5
20260905225618 72 123 0.0 0.0 0.00 0.00 0.00 90 1018.4
20260905225114 72 123 0.0 0.0 0.00 0.00 0.00 89 1018.5
20260905224614 72 122 0.0 0.0 0.00 0.00 0.00 89 1018.5
20260905224113 72 132 0.0 0.0 0.00 0.00 0.00 89 1018.5
20260905223610 72 146 0.0 0.0 0.00 0.00 0.00 89 1018.3
20260905223107 72 125 0.0 0.0 0.00 0.00 0.00 89 1018.3
20260905222606 72 129 1.0 1.0 0.00 0.00 0.00 89 1018.3
20260905222102 72 147 0.0 0.0 0.00 0.00 0.00 88 1018.2
20260905221558 73 127 0.0 0.0 0.00 0.00 0.00 88 1018.2
20260905221054 73 137 0.0 0.0 0.00 0.00 0.00 88 1018.1
20260905220549 73 136 0.0 0.0 0.00 0.00 0.00 89 1018.1
20260905220045 73 136 0.0 0.0 0.00 0.00 0.00 88 1017.9